Regional Weather Roundup
Issued by NWS

Home | Current Version | Previous Version | Text Only | Print | Product List | Glossary Off
Versions: 1 2 3 4 5 6 7 8 9 10 11 12 13 14 15 16 17 18 19 20 21 22 23 24 25 26 27 28 29 30 31 32 33 34 35 36 37 38 39 40 41 42 43 44 45 46 47 48 49 50

000
ASUS43 KBIS 042202
RWRND

NORTH DAKOTA REGIONAL WEATHER ROUNDUP
NATIONAL WEATHER SERVICE BISMARCK ND
500 PM CDT FRI SEP 04 2015

NOTE: "FAIR" INDICATES FEW OR NO CLOUDS BELOW 12,000 FEET WITH NO
SIGNIFICANT WEATHER AND/OR OBSTRUCTIONS TO VISIBILITY.


NDZ001>003-009>011-017-042300-
NORTHWEST NORTH DAKOTA

CITY           SKY/WX    TMP DP  RH WIND       PRES   REMARKS
WILLISTON      SUNNY     77  56  48 NE12      29.85F
MINOT          CLOUDY    70  60  70 NW16G25   29.83R
$$

NDZ018>021-031>035-040>046-042300-
SOUTHWEST NORTH DAKOTA

CITY           SKY/WX    TMP DP  RH WIND       PRES   REMARKS
BISMARCK       SUNNY     87  67  51 VRB5      29.77S HX  90
DICKINSON      MOSUNNY   77  64  64 NE9       29.82S
GARRISON         N/A     79  64  60 N14       29.80S
HETTINGER ARPT SUNNY     88  56  33 E5        29.80S
$$

NDZ004>008-012>016-024-026-027-054-042300-
NORTHEAST NORTH DAKOTA

CITY           SKY/WX    TMP DP  RH WIND       PRES   REMARKS
GRAND FORKS    CLOUDY    79  67  66 S9        29.79S
GRND FRKS AFB  CLOUDY    74  70  87 NE10      29.80S
DEVILS LAKE    CLOUDY    70  63  78 SE10      29.79F
$$

NDZ022-023-025-028>030-036>039-047>053-042300-
SOUTHEAST NORTH DAKOTA

CITY           SKY/WX    TMP DP  RH WIND       PRES   REMARKS
FARGO          LGT RAIN  77  71  82 E5        29.81S
JAMESTOWN      CLOUDY    81  67  62 E3        29.78S
$$




USA.gov is the U.S. government's official web portal to all federal, state and local government web resources and services.